Regional Weather Roundup
Issued by NWS Pendleton, OR

Home | Current Version | Previous Version | Text Only | Print | Product List | Glossary On
Versions: 1 2 3 4 5 6 7 8 9 10 11 12 13 14 15 16 17 18 19 20 21 22 23 24 25 26 27 28 29 30 31 32 33 34 35 36 37 38 39 40 41 42 43 44 45 46 47 48 49 50
000
ASUS46 KPDT 230425
RWRPDT
PENDLETON REGIONAL WEATHER ROUNDUP
NATIONAL WEATHER SERVICE PENDLETON OREGON
800 PM PST MON DEC 22 2014

NOTE: FAIR INDICATES FEW OR NO CLOUDS BELOW 12,000 FEET WITH NO
SIGNIFICANT WEATHER AND/OR OBSTRUCTIONS TO VISIBILITY.

# INDICATES UNOFFICIAL STATION AND DATA

WAZ520-230510-
EAST SLOPES OF WASHINGTON CASCADES

CITY            SKY/WX      TMP DP  RH  WIND    PRES   REMARKS
#BULLFROG 2SW   N/A         35  33  92  CALM    27.89F
#BUMPING DAM    N/A         30  N/A N/A S1      N/A
#CLE ELUM HS    N/A         36  31  82  CALM    30.27S
#CLE ELUM 2NW   N/A         34  32  92  CALM    N/A
#CLE ELUM LAKE  N/A         33  29  85  CALM    30.36S
#CLIFFDEL 2NW   N/A         32  30  92  NW2     N/A
#GLENWOOD       N/A         37  35  92  CALM    30.36R
#MANASTASH CYN  N/A         34  28  78  CALM    30.26R
#NELSON         N/A         32  30  92  CALM    30.39S
#NILE           N/A         33  32  96  W1      29.64R
#RONALD 2NW     N/A         34  30  85  N2      30.17F
#SNOWDEN        N/A         38  31  76  CALM    N/A
#TEANAWAY 4NE   N/A         35  32  89  CALM    N/A
#TROUT LAKE HS  N/A         39  37  92  W1      N/A
#TROUT LAKE 1NE N/A         37  35  92  CALM    30.37R
$$

WAZ521-230510-
SIMCOE HIGHLANDS

CITY            SKY/WX      TMP DP  RH  WIND    PRES   REMARKS
#BICKLETON HS   N/A         36  22  56  CALM    34.25S
#CENTERVILLE 1SWN/A         39  35  85  CALM    30.34R
#GOLDENDALE     N/A         42  38  86  S3      N/A
#GOLDENDALE 1NE N/A         40  35  82  N3      N/A
#GOLDENDALE 1S  N/A         41  38  89  CALM    30.29R
#GOLDENDALE 5WNWN/A         40  36  85  CALM    30.34R
#GOODNOE HILLS  N/A         46  36  68  N3      N/A
#LYLE 6NE       N/A         44  39  82  CALM    30.32S
$$

WAZ026-230510-
KITTITAS VALLEY

CITY            SKY/WX      TMP DP  RH  WIND    PRES   REMARKS
ELLENSBURG AP   CLOUDY      44  31  60  N8      30.32R
#ELLENSBURG CWU N/A         42  32  67  N8      30.30R
#ELLENSBURG 3NE N/A         40  33  76  NE3     30.30R
#ELLENSBURG     N/A         43  37  79  W5      N/A
#ELLENSBURG 1E  N/A         41  30  65  W1      N/A
#KITTITAS 4N    N/A         38  31  76  E1      30.34R
#KITTITAS 3S    N/A         39  32  76  CALM    30.34R
#THORP 6N       N/A         36  31  82  N5      30.38R
$$

WAZ027-230510-
YAKIMA VALLEY

CITY            SKY/WX      TMP DP  RH  WIND    PRES   REMARKS
YAKIMA AIRPORT  CLOUDY      46  30  53  N3      30.35R
YAKIMA-VAGABOND CLOUDY      42  30  62  VRB2    30.35R
#DONALD 2NE     N/A         46  25  43  CALM    29.19R
#GRANDVIEW      N/A         43  32  65  CALM    30.39R
#MABTON         N/A         42  35  76  CALM    30.35R
#MOXEE 2E       N/A         38  38  100 CALM    29.88S
#NACHES 2SW     N/A         42  33  70  W7      30.31R
#OUTLOOK DOT    N/A         N/A N/A N/A N6      N/A
#SELAH 8E       N/A         38  28  67  SE6     N/A
#TERRACE HTS    N/A         44  31  60  CALM    30.33R
#WAPATO 4NE     N/A         46  25  43  CALM    29.19R
#WEST VALLEY    N/A         45  32  60  CALM    30.33R
#W YAKIMA       N/A         44  33  65  CALM    30.35R
#WHITE SWAN 5E  N/A         37  32  82  W1      30.37R
#WILEY CITY 3W  N/A         39  22  50  CALM    30.35R
$$

WAZ028-230510-
LOWER COLUMBIA BASIN...WASHINGTON

CITY            SKY/WX      TMP DP  RH  WIND    PRES   REMARKS
PASCO           MOCLDY      41  36  82  CALM    30.37R
PROSSER AWOS    N/A         43  36  76  NW2     30.39R
RICHLAND AWOS   MOCLDY      45  36  70  CALM    30.36R
#BASIN CITY 5SW N/A         42  35  76  CALM    30.35R
#BENTON CITY    N/A         45  34  65  CALM    30.27R
#CONNELL 5N     N/A         38  33  82  CALM    30.36R
#CONNELL 5NW    N/A         38  33  82  CALM    30.33R
#ELTOPIA        N/A         42  35  76  CALM    30.33R
#ELTOPIA 6NW    N/A         46  33  60  S1      29.30R
#KAHLOTUS       N/A         43  32  65  NW1     30.37R
#KENNEWICK      N/A         35  33  92  CALM    27.89F
#KENNEWICK 3S   N/A         46  33  60  CALM    30.37R
#PASCO-BROADMOORN/A         45  33  63  CALM    30.28R
#PATERSON       N/A         44  38  79  CALM    30.35R
#PROSSER        N/A         46  31  56  CALM    30.36R
#SAGEMOOR 2W    N/A         44  34  68  CALM    30.21R
#TOUCHET 2S     N/A         41  36  82  CALM    30.36R
$$

WAZ029-230510-
FOOTHILLS OF THE BLUES...WASHINGTON

CITY            SKY/WX      TMP DP  RH  WIND    PRES   REMARKS
WALLA WALLA AP  MOCLDY      43  34  70  E6      30.35R
#COLLEGE PLACE  N/A         45  34  65  CALM    30.36S
#DAYTON SCHOOL  N/A         41  29  62  CALM    30.35R
#LOWDEN 2SE     N/A         41  37  86  E1      30.33R
#PLEASANT VIEW 1N/A         39  34  82  SW3     30.42R
#PRESCOTT       N/A         40  36  85  CALM    30.36R
#SUDBURY        N/A         41  N/A N/A CALM    N/A
#WHITMAN COLLEGEN/A         44  35  70  E3      30.42R
#WAITSBURG 5S   N/A         41  35  79  SE8     30.47R
#WALLA WALLA 5E N/A         42  36  79  E1      N/A
#WALLA WALLA U  N/A         42  36  79  CALM    30.37R
#WHITMAN MISSIONN/A         43  37  79  E1      30.37S
$$

WAZ030-230510-
BLUE MOUNTAINS...WASHINGTON

CITY            SKY/WX      TMP DP  RH  WIND    PRES   REMARKS
#DIXIE 5SE      N/A         38  27  64  S2      30.26R
#SKI BLUEWOOD   N/A         29  26  88  CALM    30.36S
$$

ORZ009-041-WAZ024-230510-
COLUMBIA RIVER GORGE

CITY            SKY/WX      TMP DP  RH  WIND    PRES   REMARKS
HOOD RIVER AP   CLOUDY      45  39  79  CALM    30.35S
THE DALLES AP   CLOUDY      49  39  68  NW3     30.35R
#ARLINGTON AIRPON/A         44  38  79  CALM    30.00S
#ARLINGTON HS   N/A         45  38  76  S2      30.28R
#CELILO DOT     N/A         49  34  56  SW2     N/A
#LYLE           N/A         50  44  80  CALM    30.37R
#MARYHILL 2W    N/A         48  42  80  CALM    N/A
#MOSIER 1S      N/A         45  36  70  W8      30.35S
#MURDOCK        N/A         50  45  83  NW2     30.38R
#RUFUS DOT      N/A         49  34  56  CALM    N/A

$$

ORZ510-230510-
NORTH CENTRAL OREGON

CITY            SKY/WX      TMP DP  RH  WIND    PRES   REMARKS
#CHENOWITH 1W   N/A         43  37  79  NW10    N/A
#COW CYN RST AREN/A         44  25  47  CALM    N/A
#DUFUR 9E       N/A         43  34  70  CALM    30.40R
#GRASS VALLEY   N/A         38  37  96  CALM    N/A
#GRASS VALLEY 1SN/A         38  35  89  CALM    30.40S
#KENT DOT       N/A         41  26  55  CALM    N/A
#MAUPIN SCHOOL  N/A         47  38  71  CALM    30.34S
#MORO SCHOOL    N/A         41  38  89  CALM    30.33R
#SHANIKO 5WSW   N/A         41  17  37  SW1     N/A
#SHANIKO 4NW    N/A         40  26  57  SW2     30.30S
#TYGH VALLEY 2NEN/A         45  39  79  CALM    30.34S
#WAPANITIA AIRPON/A         42  35  76  CALM    30.36R
#WASCO DOT      N/A         43  36  76  CALM    N/A
#WASCO 5NE      N/A         41  37  86  CALM    30.35R
$$

ORZ511-230510-
CENTRAL OREGON

CITY            SKY/WX      TMP DP  RH  WIND    PRES   REMARKS
BEND AIRPORT    PTCLDY      37  34  89  S6      30.34R
MADRAS AIRPORT  CLOUDY      41  37  86  S5      30.34S
PRINEVILLE AP   CLOUDY      37  36  96  CALM    30.33S
REDMOND AIRPORT MOCLDY      36  33  89  S6      30.32R
#BEND 1SW       N/A         36  35  96  CALM    N/A
#BEND-AWBREY    N/A         40  36  85  S2      30.36R
#BEND-KIM LN    N/A         39  37  92  CALM    30.30R
#CROOKED RVR RANN/A         42  37  82  N14     30.33S WCI 35
#CULVER         N/A         41  35  79  CALM    30.27F
#LAKE BILLY CHINN/A         41  29  62  CALM    30.38S
#POWELL BUTTE 3EN/A         39  32  76  E1      N/A
#POWELL BUTTE   N/A         41  30  65  S3      29.93S
#PRINEVILLE 3N  N/A         40  35  82  E3      30.31R
#WARM SPRINGS   N/A         44  39  82  CALM    30.29R


ORZ509-230510-
EAST SLOPES OF OREGON CASCADES

CITY            SKY/WX      TMP DP  RH  WIND    PRES   REMARKS
#BLUE BOX PASS  N/A         34  -13 12  CALM    N/A
#BLACK BUTTE RNCN/A         34  33  96  CALM    30.35S
#CAMP SHERMAN   N/A         34  32  92  CALM    30.41S
#LA PINE DOT    N/A         36  33  89  E2      N/A
#LA PINE 4NW    N/A         33  30  89  CALM    30.37R
#LAVA BUTTE DOT N/A         33  31  92  CALM    N/A
#MT BACHELOR-MIDN/A         29  28  96  E17     N/A    WCI 17
#SISTERS AIRPOR N/A         35  35  100 CALM    30.17S
#SISTERS ODOT   N/A         35  N/A N/A CALM    N/A
#SISTERS 3N     N/A         34  30  85  CALM    30.34S
#SUNRIVER       N/A         35  33  92  CALM    30.23R
#TUMALO 3W      N/A         41  33  73  E2      30.23R
#WANOGA BUTTE D N/A         35  31  85  W7      N/A

$$

ORZ044-230510-
LOWER COLUMBIA BASIN...OREGON

CITY            SKY/WX      TMP DP  RH  WIND    PRES   REMARKS
HERMISTON       PTCLDY      43  36  76  SE5     30.35R
#BOARDMAN 8SW   N/A         45  39  79  W3      30.35R
#ECHO 8SW       N/A         43  35  73  SW1     30.32R
#IONE SCHOOL    N/A         42  28  57  CALM    30.34R
#IRRIGON 4NW    N/A         44  40  86  E2      N/A
#UMATILLA SCHOOLN/A         41  40  96  CALM    30.39R
#UMATILLA       N/A         44  37  76  E1      30.34R
$$

ORZ507-230510-
NORTHERN FOOTHILLS OF THE BLUES

CITY            SKY/WX      TMP DP  RH  WIND    PRES   REMARKS
PENDLETON AIRPT MOCLDY      40  34  79  S7      30.34R
#ADAMS 3WNW     N/A         38  35  89  CALM    30.38R
#ATHENA         N/A         40  36  85  SE1     30.39R
#CAYUSE         N/A         43  36  76  E6      30.36R
#HELIX SCHOOL   N/A         38  35  89  CALM    30.38R
#HELIX 3N       N/A         39  36  89  S7      30.29S
#HOLDMAN 5SE    N/A         41  37  86  CALM    30.34R
#HOLDMAN 6E     N/A         41  37  86  CALM    30.18R
#M-F GROVE ELEM N/A         44  33  65  CALM    30.33S
#M-FREEWATER 5SEN/A         42  34  73  E7      30.34R
#PENDLETON DNTN N/A         43  31  62  CALM    29.14S
#PDT AQUATIC CTRN/A         43  31  62  CALM    30.32S
#PENDLETON 5NE  N/A         40  37  89  CALM    30.30R
#PDT SUNRIDGE   N/A         41  35  79  CALM    30.37R
#PENDLETON 7NW  N/A         41  35  79  CALM    N/A
#PILOT ROCK     N/A         40  28  62  CALM    30.36R
#TUTUILLA       N/A         40  36  85  S2      30.35R
#UMAPINE 2E     N/A         44  38  79  SE5     30.33R
#WESTON SCHOOL  N/A         42  33  70  S1      30.30S

$$

ORZ508-230510-
SOUTHERN FOOTHILLS OF THE BLUES

CITY            SKY/WX      TMP DP  RH  WIND    PRES   REMARKS
LEXINGTON       CLOUDY      43  34  70  E8      30.36S
#AJAX           N/A         43  26  51  CALM    30.23S
#CONDON SCHOOL  N/A         42  33  70  CALM    30.26R
#CONDON 5W      N/A         43  30  60  CALM    30.28S
#FOSSIL SCHOOL  N/A         40  31  70  CALM    30.27S
#HEPPNER EOC    N/A         41  33  73  E2      30.33R
#HEPPNER 4NE    N/A         39  32  76  SE1     30.37R
#LEXINGTON 2SE  N/A         43  34  70  S5      30.32S
#MIKKALO        N/A         43  32  65  W2      30.32R
#RUGGS 5NE      N/A         37  28  70  SE1     30.46R
#RUGGS 2SW      N/A         39  27  62  S7      30.39R

$$

ORZ502-503-230510-
BLUE MOUNTAINS

CITY            SKY/WX      TMP DP  RH  WIND    PRES   REMARKS
MEACHAM         CLOUDY      31  30  96  CALM    30.32R
#BATTLE MTN DOT N/A         31  31  100 S1      N/A
#HARDMAN 10S    N/A         31  26  81  CALM    30.51R
#HEPPNER 15SE   N/A         31  29  92  CALM    30.24R
#LADD CYN SMT   N/A         32  25  75  CALM    N/A
#LADD CREEK ODOTN/A         32  30  92  S1      N/A
#LONG CREEK HS  N/A         32  29  89  CALM    30.28R
#N POWDER DOT   N/A         33  29  85  N3      N/A
#PIKES PEAK     N/A         37  28  70  S9      27.99S
#TOLLGATE       N/A         30  29  96  CALM    30.17R
#TROY SCHOOL    N/A         39  35  85  W5      30.26R
#UKIAH          N/A         30  27  88  CALM    30.43R
#WESTON 4E      N/A         35  33  92  E3      30.34R
$$

ORZ505-230510-
JOHN DAY BASIN

CITY            SKY/WX      TMP DP  RH  WIND    PRES   REMARKS
JOHN DAY        PTCLDY      36  26  67  E5      30.34R
#JOHN DAY KJDY  N/A         38  29  70  CALM    30.37F
#DAYVILLE SCHOOLN/A         32  29  89  CALM    30.16S
#MONUMENT HS    N/A         38  30  73  CALM    30.34R
#MT. VERNON 5SE N/A         33  24  69  CALM    30.29R
#WINLOCK        N/A         37  27  67  CALM    30.39R
$$

ORZ506-230510-
OCHOCO AND JOHN DAY HIGHLANDS

CITY            SKY/WX      TMP DP  RH  WIND    PRES   REMARKS
#HORSE RIDGE DO N/A         32  31  96  CALM    N/A
#KEYES SMT DOT  N/A         34  27  75  CALM    N/A
#PAULINA SCHOOL N/A         N/A N/A N/A CALM    30.29R
#PRAIRIE CITY   N/A         30  23  75  CALM    30.53R
#SENECA         N/A         30  N/A N/A CALM    N/A
#SENECA 9NW     N/A         29  26  88  CALM    30.39R
$$

ORZ049-230510-
GRANDE RONDE VALLEY

CITY            SKY/WX      TMP DP  RH  WIND    PRES   REMARKS
LA GRANDE       CLOUDY      36  25  64  S5      30.34R
#COVE           N/A         34  28  78  N2      30.03S
#COVE SCHOOL    N/A         36  29  75  CALM    30.29R
#COVE 6NW       N/A         33  29  85  CALM    30.45R
#ELGIN 3N       N/A         32  26  78  CALM    30.05R
#ELGIN 1E       N/A         34  29  82  CALM    N/A
#ISLAND CITY 4N N/A         44  43  96  CALM    30.33R
#LADD CYN DOT   N/A         36  30  79  SE7     N/A
#UNION 1S       N/A         35  30  82  CALM    30.32R
$$

ORZ050-230510-
WALLOWA COUNTY

CITY            SKY/WX      TMP DP  RH  WIND    PRES   REMARKS
JOSEPH AIRPORT  CLOUDY      30  27  88  S5      30.33R
#ENTERPRISE AP  N/A         32  25  75  CALM    30.23R
#ENTERPRISE HS  N/A         32  28  85  CALM    30.31R
#IMNAHA SCHOOL  N/A         38  31  76  S1      30.34R
#IMNAHA 10S     N/A         36  28  72  SW3     30.29S
#JOSEPH 3N      N/A         29  25  85  CALM    30.31R
#JOSEPH 3W      N/A         27  21  78  SW1     30.12R
#LOSTINE        N/A         32  27  82  CALM    30.20R
#MT HOWARD 8000 N/A         15  N/A N/A CALM    30.15R
#PROMISE 1S     N/A         33  28  82  CALM    30.51R
#SHEEP RDG 7000 N/A         20  15  81  CALM    30.46R
#WALLOWA SCHOOL N/A         31  28  88  CALM    31.38R



$$



USA.gov is the U.S. government's official web portal to all federal, state and local government web resources and services.